Location: Kalberh�ni
(46.4610°N, 7.2453°E)
Time: 07:51:37
(UTC+00:00)

Cosmos 1455 - Pass Details

Date: 27 October 2021
Orbit: 496 x 520 km, 82.5° (Epoch: 27 November)

Event Time Altitude Azimuth Distance (km) Brightness Sun altitude
Rises 16:55:16 0° 134° (SE) 2,618 5.4 -6.1°
Reaches altitude 10° 16:59:30 10° 88° (E) 1,733 4.2 -6.8°
Maximum altitude 16:59:49 10° 83° (E) 1,728 4.2 -6.9°
Drops below altitude 10° 17:00:06 10° 79° (ENE) 1,732 4.2 -6.9°
Enters shadow 17:02:13 - 51° (NE) 2,016 4.7 -7.3°
